{"data":{"norad_id":58673,"epoch":"2026-09-19T17:29:32.135424Z","epoch_age_seconds":216334,"freshness":"STALE","line1":"1 58673U 23211G   26262.72884416  .00000383  00000+0  23446-4 0  9992","line2":"2 58673  43.0015  58.6506 0001159 270.0186  90.0533 15.27576175153548","mean_motion":15.27576175,"eccentricity":0.0001159,"inclination_deg":43.0015,"raan_deg":58.6506,"arg_perigee_deg":270.0186,"mean_anomaly_deg":90.0533,"bstar":2.3446e-5,"rev_number":15354,"period_min":94.266984754459,"perigee_km":482.2653366936,"apogee_km":483.85576228557,"semimajor_km":6861.1975494896,"source":"CELESTRAK","updated_at":"2026-09-21T09:00:33.943019Z"}}